Location: The C. Gantt Observatory
(33.6981°N, 81.6836°W)
Time: 19:03:23
(UTC-04:00)

Iridium 30 - Visible Passes

Search period start: 25 July 2014 00:00
Search period end: 04 August 2014 00:00
Orbit: 776 x 779 km, 86.4° (Epoch: 24 July)

Date Brightness Start Highest point End Pass type
(mag) Time Alt. Az. Time Alt. Az. Time Alt. Az.
25 Jul 7.2 05:17:38 10° SSE 05:22:18 35° E 05:26:59 10° NNE visible
26 Jul 8.2 04:45:34 10° ESE 04:49:01 18° E 04:52:29 10° NE visible
27 Jul 5.5 05:50:34 10° S 05:55:46 80° W 06:00:59 10° N visible
28 Jul 6.3 05:17:17 10° SSE 05:22:18 52° E 05:27:21 10° NNE visible
29 Jul 7.5 04:44:39 10° SE 04:48:57 27° E 04:53:16 10° NNE visible
30 Jul 8.2 04:13:10 10° ESE 04:15:44 14° E 04:18:17 10° NE visible
30 Jul 5.7 05:50:50 10° SSW 05:55:53 52° W 06:00:58 10° N visible
31 Jul 5.6 05:17:10 10° S 05:22:21 79° E 05:27:34 10° N visible
01 Aug 6.8 04:44:07 10° SSE 04:48:56 40° E 04:53:46 10° NNE visible
02 Aug 7.8 04:11:51 10° SE 04:15:38 21° E 04:19:26 10° NE visible
02 Aug 6.2 05:51:20 10° SSW 05:56:03 35° W 06:00:48 10° NNW visible
03 Aug 8.4 03:41:50 10° E 03:42:27 10° ENE 03:43:05 10° ENE visible
03 Aug 5.5 05:17:57 14° S 05:22:27 69° W 05:27:39 10° N visible
